QPF
0.00 0.00 0.00 0.00 0.00 0.00 0.00 0.00 0.00 0.00 0.00 0.00 0.00 0.00 0.00 0.00 0.00 0.00 0.00 0.00 0.00 0.00 0.00 0.00 0.00 0.01 0.01 0.01 0.01 0.00 0.00 0.00 0.01 0.03 0.02 0.00 0.00 0.00 0.00 0.01 0.01 0.00 0.00 0.01 0.03 0.00 0.00 0.00 0.00
0.00 0.00 0.00 0.00 0.00 0.00 0.00 0.00 0.00 0.00 0.00 0.00 0.00 0.00 0.00 0.00 0.00 0.00 0.00 0.00 0.00 0.00 0.00 0.00 0.00 0.00 0.00 0.01 0.00 0.00 0.00 0.00 0.00 0.00 0.02 0.01 0.00 0.00 0.01 0.00 0.00 0.00 0.02 0.02 0.00 0.00 0.00 0.00 0.00
0.00 0.00 0.00 0.00 0.00 0.00 0.00 0.00 0.00 0.00 0.00 0.00 0.00 0.00 0.00 0.00 0.00 0.00 0.00 0.00 0.00 0.00 0.00 0.00 0.00 0.00 0.00 0.00 0.00 0.00 0.00 0.00 0.00 0.00 0.00 0.01 0.00 0.01 0.00 0.01 0.00 0.00 0.01 0.04 0.02 0.00 0.00 0.00 0.00
0.00 0.00 0.00 0.00 0.00 0.00 0.00 0.00 0.00 0.00 0.00 0.00 0.00 0.00 0.00 0.00 0.00 0.00 0.00 0.00 0.00 0.00 0.00 0.00 0.00 0.00 0.00 0.00 0.00 0.00 0.00 0.00 0.00 0.00 0.00 0.00 0.01 0.01 0.00 0.00 0.00 0.00 0.00 0.02 0.04 0.00 0.00 0.00 0.00
0.00 0.00 0.00 0.00 0.00 0.00 0.00 0.00 0.00 0.00 0.00 0.00 0.00 0.00 0.00 0.00 0.00 0.00 0.00 0.00 0.00 0.00 0.00 0.00 0.00 0.00 0.00 0.00 0.00 0.00 0.00 0.00 0.00 0.00 0.00 0.00 0.00 0.00 0.00 0.00 0.00 0.00 0.00 0.02 0.04 0.01 0.00 0.00 0.00
0.00 0.00 0.00 0.00 0.00 0.00 0.00 0.00 0.00 0.00 0.00 0.00 0.00 0.00 0.00 0.00 0.00 0.00 0.00 0.00 0.00 0.00 0.00 0.00 0.00 0.00 0.00 0.00 0.00 0.00 0.01 0.00 0.00 0.00 0.00 0.00 0.00 0.00 0.00 0.00 0.00 0.00 0.00 0.00 0.03 0.04 0.01 0.01 0.01
0.00 0.00 0.00 0.00 0.00 0.00 0.00 0.00 0.00 0.00 0.00 0.00 0.00 0.00 0.00 0.00 0.00 0.00 0.00 0.00 0.00 0.00 0.00 0.00 0.00 0.00 0.00 0.00 0.00 0.00 0.02 0.01 0.00 0.00 0.00 0.00 0.00 0.00 0.00 0.00 0.00 0.00 0.00 0.00 0.00 0.04 0.05 0.03 0.03
0.00 0.00 0.00 0.00 0.00 0.00 0.00 0.00 0.00 0.00 0.00 0.00 0.00 0.00 0.00 0.00 0.00 0.00 0.00 0.00 0.00 0.00 0.00 0.00 0.00 0.00 0.00 0.00 0.00 0.00 0.01 0.00 0.00 0.00 0.00 0.00 0.00 0.00 0.00 0.00 0.00 0.00 0.00 0.00 0.00 0.00 0.02 0.02 0.02
0.00 0.00 0.00 0.00 0.00 0.00 0.00 0.00 0.00 0.00 0.00 0.00 0.00 0.00 0.00 0.00 0.00 0.00 0.00 0.00 0.00 0.00 0.00 0.00 0.00 0.00 0.00 0.00 0.00 0.00 0.00 0.00 0.00 0.00 0.00 0.00 0.00 0.00 0.00 0.00 0.00 0.00 0.00 0.00 0.00 0.00 0.00 0.00 0.01
0.00 0.00 0.00 0.00 0.00 0.00 0.00 0.00 0.00 0.00 0.00 0.00 0.00 0.00 0.00 0.00 0.00 0.00 0.00 0.00 0.00 0.00 0.00 0.00 0.00 0.00 0.00 0.00 0.00 0.00 0.00 0.00 0.00 0.00 0.00 0.00 0.00 0.00 0.00 0.00 0.00 0.00 0.00 0.00 0.00 0.00 0.00 0.00 0.00
0.00 0.00 0.00 0.00 0.00 0.00 0.00 0.00 0.00 0.00 0.00 0.00 0.00 0.00 0.00 0.00 0.00 0.00 0.00 0.00 0.00 0.00 0.00 0.00 0.00 0.00 0.00 0.00 0.00 0.00 0.00 0.00 0.00 0.00 0.00 0.00 0.00 0.00 0.00 0.00 0.00 0.00 0.00 0.00 0.00 0.00 0.00 0.00 0.00
0.00 0.00 0.00 0.00 0.00 0.00 0.00 0.00 0.00 0.00 0.00 0.00 0.00 0.00 0.00 0.00 0.00 0.00 0.00 0.00 0.00 0.00 0.00 0.00 0.00 0.00 0.00 0.00 0.00 0.00 0.00 0.00 0.00 0.00 0.00 0.00 0.00 0.00 0.00 0.00 0.00 0.00 0.00 0.00 0.00 0.00 0.00 0.00 0.00
0.00 0.00 0.00 0.00 0.00 0.00 0.00 0.00 0.00 0.00 0.00 0.00 0.00 0.00 0.00 0.00 0.00 0.00 0.00 0.00 0.00 0.00 0.00 0.00 0.00 0.00 0.00 0.00 0.00 0.00 0.00 0.00 0.00 0.00 0.00 0.00 0.00 0.00 0.00 0.00 0.00 0.00 0.00 0.00 0.00 0.00 0.00 0.00 0.00
0.00 0.00 0.00 0.00 0.00 0.00 0.00 0.00 0.00 0.00 0.00 0.00 0.00 0.00 0.00 0.00 0.00 0.00 0.00 0.00 0.00 0.00 0.00 0.00 0.00 0.00 0.00 0.00 0.00 0.00 0.00 0.00 0.00 0.00 0.00 0.00 0.00 0.00 0.00 0.00 0.00 0.00 0.00 0.00 0.00 0.00 0.00 0.00 0.00
0.00 0.00 0.00 0.00 0.00 0.00 0.00 0.00 0.00 0.00 0.00 0.00 0.00 0.00 0.00 0.00 0.00 0.00 0.00 0.00 0.00 0.00 0.00 0.00 0.00 0.00 0.00 0.00 0.00 0.00 0.00 0.00 0.00 0.00 0.00 0.00 0.00 0.00 0.00 0.00 0.00 0.00 0.00 0.00 0.00 0.00 0.00 0.00 0.00
0.00 0.00 0.00 0.00 0.00 0.00 0.00 0.00 0.00 0.00 0.00 0.00 0.00 0.00 0.00 0.00 0.00 0.00 0.00 0.00 0.00 0.00 0.00 0.00 0.00 0.00 0.00 0.00 0.00 0.00 0.00 0.00 0.00 0.00 0.00 0.00 0.00 0.00 0.00 0.00 0.00 0.00 0.00 0.00 0.00 0.00 0.00 0.00 0.00
0.00 0.00 0.00 0.00 0.00 0.00 0.00 0.00 0.00 0.00 0.00 0.00 0.00 0.00 0.00 0.00 0.00 0.00 0.00 0.00 0.00 0.00 0.00 0.00 0.00 0.00 0.00 0.00 0.00 0.00 0.00 0.00 0.00 0.00 0.00 0.00 0.00 0.00 0.00 0.00 0.00 0.00 0.00 0.00 0.00 0.00 0.00 0.00 0.00
0.00 0.00 0.00 0.00 0.00 0.00 0.00 0.00 0.00 0.00 0.00 0.00 0.00 0.00 0.00 0.00 0.00 0.00 0.00 0.00 0.00 0.00 0.00 0.00 0.00 0.00 0.00 0.00 0.00 0.00 0.00 0.00 0.00 0.00 0.00 0.00 0.00 0.00 0.00 0.00 0.00 0.00 0.00 0.00 0.00 0.00 0.00 0.00 0.00
0.00 0.00 0.00 0.00 0.00 0.00 0.00 0.00 0.00 0.00 0.00 0.00 0.00 0.00 0.00 0.00 0.00 0.00 0.00 0.00 0.00 0.00 0.00 0.00 0.00 0.00 0.00 0.00 0.00 0.00 0.00 0.00 0.00 0.00 0.00 0.00 0.00 0.00 0.00 0.00 0.00 0.00 0.00 0.00 0.00 0.00 0.00 0.00 0.00
0.00 0.00 0.00 0.00 0.00 0.00 0.00 0.00 0.00 0.00 0.00 0.00 0.00 0.00 0.00 0.00 0.00 0.00 0.00 0.00 0.00 0.00 0.00 0.00 0.00 0.00 0.00 0.00 0.00 0.00 0.00 0.00 0.00 0.00 0.00 0.00 0.00 0.00 0.00 0.00 0.00 0.00 0.00 0.00 0.00 0.00 0.00 0.00 0.00
0.00 0.00 0.00 0.00 0.00 0.00 0.00 0.00 0.00 0.00 0.00 0.00 0.00 0.00 0.00 0.00 0.00 0.00 0.00 0.00 0.00 0.00 0.00 0.00 0.00 0.00 0.00 0.00 0.00 0.00 0.00 0.00 0.00 0.00 0.00 0.00 0.00 0.00 0.00 0.00 0.00 0.00 0.00 0.00 0.00 0.00 0.00 0.00 0.00
0.00 0.00 0.00 0.00 0.00 0.00 0.00 0.00 0.00 0.00 0.00 0.00 0.00 0.00 0.00 0.00 0.00 0.00 0.00 0.00 0.00 0.00 0.00 0.00 0.00 0.00 0.00 0.00 0.00 0.00 0.00 0.00 0.00 0.00 0.00 0.00 0.00 0.00 0.00 0.00 0.00 0.00 0.00 0.00 0.00 0.00 0.00 0.00 0.00
0.00 0.00 0.00 0.00 0.00 0.00 0.00 0.00 0.00 0.00 0.00 0.00 0.00 0.00 0.00 0.00 0.00 0.00 0.00 0.00 0.00 0.00 0.00 0.00 0.00 0.00 0.00 0.00 0.00 0.00 0.00 0.00 0.00 0.00 0.00 0.00 0.00 0.00 0.00 0.00 0.00 0.00 0.00 0.00 0.00 0.00 0.00 0.00 0.00
0.00 0.00 0.00 0.00 0.00 0.00 0.00 0.00 0.00 0.00 0.00 0.00 0.00 0.00 0.00 0.00 0.00 0.00 0.00 0.00 0.00 0.00 0.00 0.00 0.00 0.00 0.00 0.00 0.00 0.00 0.00 0.00 0.00 0.00 0.00 0.00 0.00 0.00 0.00 0.00 0.00 0.00 0.00 0.00 0.00 0.00 0.00 0.00 0.00
0.00 0.00 0.00 0.00 0.00 0.00 0.00 0.00 0.00 0.00 0.00 0.00 0.00 0.00 0.00 0.00 0.00 0.00 0.00 0.00 0.00 0.00 0.00 0.00 0.00 0.00 0.00 0.00 0.00 0.00 0.00 0.00 0.00 0.00 0.00 0.00 0.00 0.00 0.00 0.00 0.00 0.00 0.00 0.00 0.00 0.00 0.00 0.00 0.00
0.00 0.00 0.00 0.00 0.00 0.00 0.00 0.00 0.00 0.00 0.00 0.00 0.00 0.00 0.00 0.00 0.00 0.00 0.00 0.00 0.00 0.00 0.00 0.00 0.00 0.00 0.00 0.00 0.00 0.00 0.00 0.00 0.00 0.00 0.00 0.00 0.00 0.00 0.00 0.00 0.00 0.00 0.00 0.00 0.00 0.00 0.00 0.00 0.00
0.00 0.00 0.00 0.00 0.00 0.00 0.00 0.00 0.00 0.00 0.00 0.00 0.00 0.00 0.00 0.00 0.00 0.00 0.00 0.00 0.00 0.00 0.00 0.00 0.00 0.00 0.00 0.00 0.00 0.00 0.00 0.00 0.00 0.00 0.00 0.00 0.00 0.00 0.00 0.00 0.00 0.00 0.00 0.00 0.00 0.00 0.00 0.00 0.00
0.00 0.00 0.00 0.00 0.00 0.00 0.00 0.00 0.00 0.00 0.00 0.00 0.00 0.00 0.00 0.00 0.00 0.01 0.00 0.00 0.00 0.00 0.00 0.00 0.00 0.00 0.00 0.00 0.00 0.00 0.00 0.00 0.00 0.00 0.00 0.00 0.00 0.00 0.00 0.00 0.00 0.00 0.00 0.00 0.00 0.00 0.00 0.00 0.00
0.03 0.03 0.01 0.02 0.01 0.00 0.00 0.01 0.01 0.00 0.00 0.00 0.00 0.00 0.00 0.00 0.00 0.00 0.00 0.00 0.00 0.00 0.00 0.00 0.00 0.00 0.00 0.00 0.00 0.00 0.00 0.00 0.00 0.00 0.00 0.00 0.00 0.00 0.00 0.00 0.00 0.00 0.00 0.00 0.00 0.00 0.00 0.00 0.00
0.00 0.03 0.04 0.05 0.02 0.01 0.01 0.01 0.01 0.00 0.00 0.00 0.00 0.00 0.00 0.00 0.00 0.00 0.00 0.00 0.00 0.00 0.00 0.00 0.00 0.00 0.00 0.00 0.00 0.00 0.00 0.00 0.00 0.00 0.00 0.00 0.00 0.00 0.00 0.00 0.00 0.00 0.00 0.00 0.00 0.00 0.00 0.00 0.00
MSLP
1011.73 1011.67 1011.72 1012.19 1012.86 1012.40 1011.24 1010.23 1009.23 1009.69 1010.10 1010.55 1011.09 1011.69 1012.17 1013.25 1014.60 1016.71 1017.02 1017.02 1017.16 1017.31 1016.99 1016.82 1016.19 1015.85 1015.70 1015.50 1015.37 1015.33 1015.28 1015.25 1015.30 1015.09 1015.07 1015.21 1015.38 1015.51 1015.66 1015.70 1015.75 1015.76 1015.69 1015.59 1015.65 1015.90 1016.08 1016.40 1016.61
1011.96 1011.91 1012.01 1012.48 1012.62 1012.17 1010.23 1009.85 1009.75 1009.58 1010.18 1011.52 1011.98 1012.86 1013.43 1014.97 1015.68 1016.53 1017.26 1017.42 1017.32 1017.30 1017.07 1016.71 1016.41 1016.19 1016.05 1015.89 1015.79 1015.73 1015.69 1015.84 1015.81 1015.76 1015.53 1015.55 1015.59 1015.68 1015.72 1015.93 1015.96 1016.04 1015.92 1015.82 1015.87 1016.09 1016.41 1016.48 1016.71
1011.80 1012.04 1012.46 1012.71 1012.36 1010.86 1010.26 1009.91 1010.14 1010.87 1011.45 1012.34 1013.14 1014.17 1014.90 1015.83 1016.53 1016.92 1017.17 1017.51 1017.65 1017.59 1017.31 1016.70 1016.57 1016.62 1016.44 1016.29 1016.23 1016.16 1016.01 1016.07 1016.36 1016.37 1016.21 1015.97 1015.84 1015.82 1015.96 1016.14 1016.31 1016.23 1016.24 1016.18 1016.22 1016.24 1016.39 1016.65 1016.68
1012.07 1012.51 1013.26 1012.87 1011.85 1010.89 1010.20 1009.92 1010.42 1011.23 1012.02 1012.18 1013.32 1015.17 1016.44 1016.84 1016.80 1017.18 1017.54 1017.71 1017.94 1018.06 1017.65 1017.01 1016.83 1016.96 1016.95 1016.73 1016.71 1016.77 1016.76 1016.82 1016.99 1017.06 1016.82 1016.66 1016.46 1016.35 1016.32 1016.33 1016.59 1016.62 1016.54 1016.49 1016.44 1016.59 1016.76 1016.89 1017.08
1012.40 1013.08 1013.58 1013.16 1011.96 1010.92 1010.32 1010.17 1010.88 1011.41 1012.03 1012.85 1013.60 1015.38 1016.63 1017.32 1017.52 1017.48 1017.76 1018.15 1018.49 1018.45 1018.22 1017.82 1017.46 1017.36 1017.50 1017.35 1017.39 1017.40 1017.52 1017.42 1017.60 1017.71 1017.42 1017.27 1017.20 1017.03 1016.92 1016.72 1016.63 1016.83 1016.83 1016.70 1016.71 1016.79 1017.06 1017.16 1017.27
1013.04 1013.61 1013.88 1013.23 1012.35 1011.18 1010.46 1010.53 1010.97 1011.68 1012.63 1013.48 1014.23 1015.63 1017.05 1017.59 1017.93 1018.01 1018.23 1018.66 1018.93 1019.10 1018.88 1018.98 1018.65 1018.20 1018.18 1018.23 1018.08 1018.03 1018.05 1017.97 1018.23 1018.37 1018.33 1017.89 1017.93 1017.75 1017.57 1017.45 1017.07 1017.12 1017.02 1016.99 1016.91 1016.90 1017.14 1017.33 1017.51
1012.52 1013.58 1013.51 1012.87 1012.24 1011.62 1011.08 1010.94 1011.62 1012.19 1012.96 1013.58 1014.09 1015.81 1017.49 1017.96 1018.19 1018.45 1018.49 1018.99 1019.46 1019.62 1019.58 1019.65 1019.77 1019.65 1019.49 1019.12 1018.99 1018.86 1018.62 1018.76 1019.00 1019.10 1019.00 1018.83 1018.48 1018.54 1018.34 1018.00 1017.70 1017.58 1017.34 1017.28 1017.19 1017.09 1017.19 1017.42 1017.60
1012.51 1012.90 1013.22 1012.56 1012.38 1011.54 1011.02 1011.50 1011.85 1012.33 1013.64 1014.08 1014.43 1015.35 1016.82 1017.30 1018.13 1018.84 1019.17 1019.24 1019.92 1020.11 1020.32 1020.23 1020.10 1020.23 1020.38 1020.30 1019.75 1019.57 1019.58 1019.74 1019.55 1019.72 1019.66 1019.48 1019.26 1019.02 1018.86 1018.79 1018.25 1018.30 1017.91 1017.69 1017.50 1017.51 1017.30 1017.32 1017.75
1012.36 1013.14 1012.97 1012.42 1012.68 1011.53 1011.27 1011.80 1012.38 1012.95 1013.60 1014.30 1014.98 1015.39 1015.84 1016.91 1018.32 1018.90 1019.60 1019.83 1020.34 1020.68 1020.62 1020.74 1020.55 1020.50 1020.70 1020.80 1020.68 1020.63 1020.27 1020.15 1020.10 1020.17 1019.98 1020.11 1019.82 1019.45 1019.37 1019.19 1019.07 1018.82 1018.54 1018.28 1018.04 1017.72 1017.80 1017.51 1017.60
1012.12 1012.98 1012.47 1011.75 1011.89 1011.93 1011.87 1011.90 1012.31 1013.04 1013.87 1014.68 1015.50 1016.26 1016.73 1017.51 1018.40 1018.81 1019.60 1020.16 1020.74 1020.95 1021.14 1021.19 1021.29 1021.12 1021.21 1021.32 1021.15 1021.09 1021.06 1020.86 1020.68 1020.58 1020.42 1020.18 1020.30 1019.99 1020.07 1019.54 1019.48 1019.32 1019.18 1018.84 1018.50 1018.21 1018.17 1018.01 1018.15
1011.91 1012.17 1011.72 1011.74 1012.08 1012.22 1012.30 1012.75 1012.92 1013.49 1014.35 1014.18 1014.92 1016.45 1017.26 1017.90 1018.49 1019.13 1019.91 1020.38 1020.80 1021.09 1021.39 1021.60 1021.73 1021.56 1021.65 1021.77 1021.82 1021.56 1021.38 1021.33 1021.34 1021.17 1020.74 1020.70 1020.39 1020.59 1020.46 1020.21 1019.93 1019.79 1019.62 1019.48 1019.38 1019.09 1018.71 1018.79 1018.50
1012.05 1012.10 1012.23 1012.40 1012.62 1012.42 1012.45 1012.79 1013.26 1013.61 1013.92 1014.20 1014.61 1015.62 1016.78 1017.60 1018.48 1019.28 1020.27 1020.67 1021.02 1021.34 1021.63 1021.78 1022.04 1022.03 1022.08 1022.16 1022.23 1022.08 1021.71 1021.92 1021.95 1021.71 1021.54 1021.11 1021.24 1020.99 1021.13 1020.90 1020.84 1020.35 1020.42 1020.18 1019.74 1019.93 1019.66 1019.17 1018.83
1011.96 1012.38 1012.50 1012.66 1012.85 1012.90 1012.68 1012.79 1012.99 1013.41 1013.85 1014.44 1015.23 1016.34 1017.12 1017.91 1018.63 1019.41 1019.90 1020.71 1021.25 1021.46 1021.75 1022.05 1022.35 1022.37 1022.26 1022.54 1022.55 1022.65 1022.54 1022.11 1022.43 1022.23 1022.03 1022.04 1022.00 1021.63 1021.48 1021.89 1021.58 1021.19 1020.95 1020.82 1020.43 1020.17 1019.95 1019.90 1019.59
1012.52 1012.76 1013.05 1013.10 1013.31 1013.31 1013.19 1013.17 1013.29 1013.68 1014.26 1014.90 1015.68 1016.40 1017.34 1017.93 1018.52 1019.29 1019.96 1020.89 1021.45 1021.65 1021.91 1022.25 1022.66 1022.58 1022.71 1022.76 1022.98 1023.01 1022.87 1022.76 1022.49 1022.56 1022.72 1022.57 1022.80 1022.54 1022.23 1022.15 1022.23 1022.04 1021.87 1021.34 1020.99 1020.80 1020.33 1020.23 1020.15
1013.17 1013.50 1013.49 1013.62 1013.50 1013.46 1013.58 1013.74 1013.81 1014.09 1014.75 1015.29 1016.10 1016.82 1017.50 1018.10 1018.72 1019.16 1019.96 1020.76 1021.32 1021.87 1022.21 1022.30 1022.60 1022.76 1023.03 1023.20 1023.26 1023.22 1023.14 1023.22 1023.08 1023.14 1023.07 1023.08 1023.19 1023.01 1022.86 1022.72 1022.60 1022.64 1022.29 1021.91 1021.32 1020.95 1020.71 1020.37 1020.36
1013.96 1014.23 1014.27 1014.07 1013.98 1014.04 1014.16 1013.81 1014.21 1014.66 1015.32 1015.89 1016.32 1017.15 1017.73 1018.36 1018.98 1019.54 1020.05 1020.56 1021.43 1021.88 1022.29 1022.38 1022.63 1023.16 1023.40 1023.46 1023.55 1023.68 1023.59 1023.42 1023.64 1023.52 1023.50 1023.47 1023.50 1023.42 1023.32 1023.23 1023.10 1023.01 1022.70 1022.43 1022.05 1021.72 1021.47 1020.94 1020.63
1015.08 1014.98 1014.82 1014.56 1014.57 1014.56 1014.59 1014.48 1014.70 1014.96 1015.57 1016.25 1016.80 1017.26 1017.91 1018.55 1019.22 1019.77 1020.18 1020.60 1021.32 1021.94 1022.49 1023.08 1023.28 1023.37 1023.59 1023.64 1023.72 1024.05 1023.76 1023.88 1024.14 1023.93 1023.84 1024.02 1023.78 1023.64 1023.63 1023.53 1023.64 1023.64 1023.28 1022.94 1022.74 1022.40 1022.14 1021.76 1021.29
1015.96 1015.94 1015.40 1015.10 1015.23 1015.14 1015.30 1015.22 1015.03 1015.30 1015.78 1016.24 1016.94 1017.69 1018.29 1018.63 1018.93 1019.66 1020.43 1021.00 1021.38 1021.85 1022.59 1023.04 1023.29 1023.45 1023.34 1023.90 1024.21 1024.36 1024.20 1024.56 1024.63 1024.50 1024.40 1024.26 1024.15 1024.03 1024.14 1024.14 1024.16 1023.94 1023.82 1023.60 1023.20 1022.76 1022.58 1022.18 1021.91
1016.57 1016.60 1016.25 1015.86 1015.90 1015.90 1015.87 1015.85 1015.29 1015.59 1016.03 1016.49 1016.94 1017.56 1018.01 1018.45 1018.91 1019.73 1020.42 1021.01 1021.69 1022.18 1022.56 1023.01 1023.17 1023.55 1023.88 1024.08 1024.08 1024.31 1024.61 1024.86 1024.99 1024.90 1024.65 1024.60 1024.80 1024.68 1024.29 1024.32 1024.45 1024.29 1024.15 1024.14 1023.78 1023.26 1022.88 1022.63 1022.29
1016.62 1016.96 1016.98 1016.79 1016.78 1016.97 1016.99 1016.06 1015.43 1015.37 1015.66 1015.77 1016.08 1016.91 1017.56 1018.33 1018.99 1019.72 1020.40 1021.10 1021.54 1022.21 1022.65 1023.18 1023.41 1023.74 1024.00 1024.15 1024.27 1024.58 1024.93 1024.93 1024.99 1025.23 1025.18 1025.14 1024.98 1024.71 1024.50 1024.74 1024.64 1024.50 1024.48 1024.36 1024.20 1023.81 1023.63 1023.38 1023.03
1017.15 1017.67 1017.74 1018.07 1017.86 1018.07 1018.14 1016.64 1015.69 1015.46 1015.73 1015.97 1016.24 1016.58 1017.10 1017.49 1018.36 1019.29 1020.16 1020.78 1021.58 1022.26 1022.52 1022.95 1023.41 1023.79 1024.21 1024.29 1024.41 1024.67 1024.78 1024.92 1025.16 1025.42 1025.42 1025.28 1025.13 1024.96 1024.79 1024.69 1024.64 1024.69 1024.70 1024.79 1024.61 1024.32 1024.05 1023.97 1023.55
1017.85 1018.24 1018.61 1019.01 1019.43 1020.04 1019.68 1018.76 1016.85 1016.75 1016.72 1017.02 1017.24 1017.64 1017.56 1017.77 1018.28 1019.03 1019.97 1020.82 1021.36 1021.83 1022.43 1023.01 1023.64 1023.99 1024.24 1024.34 1024.45 1024.58 1024.91 1025.31 1025.68 1025.75 1025.65 1025.50 1025.34 1025.11 1024.89 1024.95 1025.01 1024.93 1024.91 1024.85 1024.66 1024.34 1024.60 1024.38 1024.37
1018.56 1018.96 1019.63 1020.42 1021.00 1021.32 1021.06 1021.00 1018.02 1017.75 1018.19 1018.27 1018.23 1018.16 1018.20 1017.99 1018.09 1018.79 1019.65 1020.39 1021.28 1022.14 1022.78 1023.22 1023.64 1024.00 1024.32 1024.42 1024.50 1024.80 1025.17 1025.47 1025.59 1025.63 1025.62 1025.52 1025.29 1025.10 1025.04 1025.09 1025.11 1025.16 1025.11 1025.07 1025.07 1024.95 1025.02 1024.77 1024.70
1019.29 1019.95 1020.81 1021.62 1022.64 1022.90 1021.99 1021.94 1020.15 1020.16 1020.34 1019.31 1018.85 1018.51 1018.14 1018.15 1018.08 1018.62 1019.54 1020.67 1021.74 1022.56 1023.20 1023.43 1023.78 1024.18 1024.40 1024.51 1024.72 1024.91 1025.16 1025.31 1025.42 1025.59 1025.60 1025.44 1025.32 1025.13 1025.08 1025.07 1025.13 1025.15 1025.09 1025.01 1025.00 1025.05 1025.06 1024.91 1024.74
1020.37 1021.15 1022.32 1023.10 1024.05 1023.42 1022.74 1022.71 1021.03 1020.67 1020.48 1020.28 1019.71 1018.79 1018.32 1018.23 1018.29 1018.78 1019.65 1020.81 1021.97 1022.78 1023.30 1023.80 1024.23 1024.57 1024.73 1024.84 1025.04 1025.23 1025.37 1025.51 1025.65 1025.74 1025.71 1025.64 1025.53 1025.41 1025.28 1025.34 1025.31 1025.32 1025.12 1024.98 1025.00 1025.02 1024.96 1024.96 1024.66
1021.90 1022.36 1022.79 1023.46 1024.06 1023.82 1023.37 1022.82 1021.37 1020.90 1020.43 1020.14 1019.87 1019.42 1019.05 1019.07 1019.00 1019.26 1019.80 1020.67 1021.68 1022.65 1023.38 1023.95 1024.38 1024.88 1025.01 1025.21 1025.42 1025.62 1025.74 1025.83 1025.85 1025.87 1025.87 1025.81 1025.77 1025.64 1025.45 1025.37 1025.31 1025.25 1025.15 1025.03 1024.86 1024.90 1024.84 1024.73 1024.41
1023.04 1023.47 1023.55 1023.64 1024.22 1024.32 1023.58 1022.59 1021.29 1020.88 1020.50 1020.26 1020.11 1019.97 1019.95 1019.80 1019.69 1019.91 1020.19 1020.74 1021.56 1022.40 1022.97 1023.55 1024.21 1024.90 1025.19 1025.35 1025.63 1025.83 1025.96 1025.96 1025.90 1025.84 1025.85 1025.80 1025.71 1025.40 1025.19 1025.30 1025.28 1025.14 1024.97 1024.81 1024.66 1024.65 1024.43 1024.26 1024.22
1023.44 1024.00 1023.81 1023.56 1023.79 1023.97 1023.32 1023.19 1022.44 1021.88 1021.71 1021.29 1020.86 1020.70 1020.56 1020.40 1020.28 1020.39 1020.63 1020.98 1021.50 1022.10 1022.76 1023.50 1023.89 1024.39 1024.91 1025.34 1025.60 1025.80 1025.88 1025.85 1025.79 1025.71 1025.60 1025.57 1025.48 1025.27 1025.15 1025.02 1024.85 1024.70 1024.57 1024.41 1024.43 1024.12 1023.86 1023.75 1023.67
1024.17 1023.86 1023.84 1023.65 1023.13 1022.92 1023.23 1023.32 1023.64 1023.09 1022.81 1022.49 1021.84 1021.40 1021.02 1020.89 1020.72 1020.78 1021.05 1021.39 1021.62 1021.93 1022.48 1023.00 1023.49 1024.03 1024.67 1025.03 1025.32 1025.63 1025.80 1025.88 1025.78 1025.71 1025.51 1025.36 1025.28 1025.07 1024.81 1024.68 1024.54 1024.39 1024.18 1023.94 1023.86 1023.63 1023.28 1023.21 1022.99
1023.70 1023.29 1022.94 1022.79 1022.82 1022.73 1022.79 1023.61 1023.54 1023.34 1023.10 1022.78 1022.42 1022.11 1021.75 1021.33 1021.32 1021.15 1020.97 1021.25 1021.57 1021.87 1022.21 1022.59 1023.03 1023.59 1024.13 1024.79 1025.33 1025.53 1025.66 1025.72 1025.76 1025.56 1025.40 1025.25 1025.12 1024.94 1024.77 1024.49 1024.33 1024.13 1023.87 1023.50 1023.31 1023.11 1022.96 1022.64 1022.53
Thickness
5642 5644 5643 5640 5626 5627 5634 5654 5673 5667 5672 5668 5671 5679 5690 5676 5692 5685 5662 5665 5668 5669 5674 5677 5682 5687 5690 5694 5697 5701 5704 5706 5706 5709 5710 5711 5709 5710 5710 5712 5712 5715 5717 5721 5721 5719 5718 5716 5714
5635 5638 5636 5628 5619 5623 5655 5659 5664 5676 5667 5659 5660 5664 5674 5670 5653 5653 5654 5657 5662 5664 5669 5674 5677 5681 5684 5687 5690 5694 5698 5699 5701 5702 5705 5706 5707 5707 5709 5708 5711 5711 5714 5717 5719 5718 5715 5714 5712
5630 5629 5625 5616 5611 5644 5651 5658 5661 5652 5654 5656 5652 5644 5647 5647 5644 5647 5649 5651 5654 5659 5663 5669 5671 5673 5677 5681 5684 5687 5692 5694 5693 5695 5698 5701 5704 5705 5705 5704 5705 5709 5710 5713 5714 5716 5715 5712 5711
5620 5619 5612 5607 5620 5639 5657 5663 5655 5648 5650 5654 5650 5644 5625 5632 5640 5639 5641 5644 5646 5649 5655 5661 5665 5666 5669 5674 5677 5679 5682 5684 5685 5686 5692 5694 5697 5700 5701 5702 5700 5702 5705 5707 5710 5711 5711 5710 5707
5606 5603 5600 5603 5617 5640 5649 5655 5647 5649 5652 5650 5649 5637 5624 5622 5628 5632 5633 5634 5635 5640 5645 5651 5655 5660 5661 5665 5667 5670 5672 5676 5677 5678 5684 5687 5688 5692 5695 5698 5700 5698 5700 5703 5704 5707 5706 5706 5705
5594 5587 5583 5602 5613 5635 5647 5646 5646 5647 5643 5637 5639 5626 5619 5617 5620 5625 5626 5624 5626 5629 5635 5637 5641 5648 5652 5653 5658 5661 5664 5667 5668 5670 5674 5680 5680 5682 5687 5689 5695 5694 5697 5698 5700 5702 5703 5702 5701
5588 5576 5584 5600 5610 5625 5636 5632 5636 5636 5635 5638 5634 5628 5608 5610 5613 5616 5620 5618 5618 5620 5625 5628 5629 5633 5638 5642 5646 5650 5654 5656 5657 5659 5664 5670 5674 5674 5678 5683 5687 5688 5692 5694 5696 5697 5699 5699 5698
5575 5577 5583 5587 5602 5617 5626 5626 5627 5634 5625 5619 5622 5628 5611 5610 5607 5605 5608 5612 5609 5611 5612 5617 5621 5623 5626 5630 5635 5640 5644 5645 5651 5650 5654 5659 5665 5670 5671 5674 5681 5680 5685 5688 5692 5692 5697 5696 5693
5569 5566 5563 5589 5588 5616 5613 5621 5611 5609 5610 5606 5605 5613 5612 5605 5597 5597 5596 5600 5599 5599 5603 5607 5612 5615 5616 5620 5624 5628 5633 5638 5643 5645 5648 5650 5656 5662 5665 5667 5669 5673 5677 5680 5684 5689 5690 5693 5693
5560 5546 5570 5587 5589 5600 5598 5611 5603 5611 5604 5604 5599 5594 5596 5593 5589 5590 5587 5588 5588 5590 5592 5596 5600 5605 5607 5608 5615 5619 5622 5627 5632 5637 5641 5646 5647 5652 5652 5661 5662 5666 5668 5672 5678 5682 5684 5686 5687
5551 5556 5566 5576 5576 5579 5589 5587 5587 5589 5595 5603 5601 5582 5582 5581 5580 5579 5578 5579 5581 5582 5583 5585 5588 5594 5597 5599 5602 5609 5614 5617 5620 5625 5632 5635 5642 5641 5644 5650 5655 5657 5660 5664 5666 5672 5678 5677 5680
5551 5550 5554 5556 5554 5568 5577 5573 5578 5580 5596 5587 5590 5585 5581 5578 5575 5572 5567 5568 5570 5572 5574 5577 5578 5583 5586 5590 5592 5597 5603 5605 5608 5614 5618 5626 5627 5633 5634 5638 5641 5648 5648 5651 5658 5658 5662 5669 5673
5544 5539 5537 5539 5542 5547 5558 5570 5577 5576 5573 5570 5573 5571 5569 5568 5564 5562 5563 5561 5561 5565 5567 5568 5570 5573 5578 5580 5583 5585 5590 5597 5597 5602 5607 5611 5615 5621 5626 5624 5630 5636 5639 5642 5646 5651 5654 5656 5660
5523 5525 5523 5526 5531 5530 5550 5555 5563 5565 5555 5559 5562 5559 5558 5558 5557 5554 5554 5550 5551 5554 5557 5559 5560 5564 5567 5571 5573 5575 5580 5585 5591 5593 5594 5599 5601 5606 5613 5617 5619 5624 5628 5634 5637 5640 5646 5649 5651
5507 5519 5517 5516 5521 5524 5522 5542 5546 5544 5541 5544 5546 5547 5546 5546 5547 5548 5545 5544 5544 5543 5545 5549 5551 5556 5558 5560 5563 5567 5571 5574 5580 5583 5586 5589 5591 5596 5601 5606 5610 5613 5618 5624 5631 5635 5639 5643 5644
5498 5492 5508 5504 5507 5507 5519 5544 5531 5523 5524 5527 5531 5533 5533 5531 5532 5532 5535 5536 5534 5534 5535 5540 5542 5544 5547 5550 5554 5556 5561 5567 5568 5572 5575 5578 5581 5586 5591 5595 5600 5604 5610 5614 5619 5624 5628 5635 5639
5470 5489 5486 5501 5489 5496 5504 5526 5510 5509 5512 5513 5512 5516 5518 5518 5518 5519 5521 5523 5523 5523 5524 5525 5528 5533 5536 5540 5544 5546 5552 5556 5557 5561 5565 5567 5572 5577 5581 5586 5588 5590 5596 5603 5607 5612 5617 5623 5628
5470 5471 5478 5487 5480 5481 5485 5478 5496 5500 5502 5505 5499 5498 5501 5505 5507 5507 5505 5507 5511 5512 5512 5514 5517 5521 5528 5529 5530 5534 5539 5541 5544 5548 5552 5557 5562 5566 5568 5572 5575 5580 5584 5589 5595 5601 5605 5611 5616
5414 5419 5434 5469 5460 5466 5466 5467 5486 5488 5490 5490 5490 5490 5490 5494 5493 5493 5494 5495 5496 5497 5501 5502 5506 5508 5511 5515 5519 5523 5525 5527 5530 5535 5540 5545 5547 5551 5558 5562 5564 5569 5573 5576 5582 5588 5594 5598 5603
5447 5441 5450 5450 5449 5446 5431 5458 5471 5479 5480 5485 5487 5484 5486 5482 5480 5479 5479 5481 5483 5484 5486 5488 5491 5494 5498 5501 5505 5508 5511 5514 5519 5522 5526 5530 5535 5541 5545 5548 5552 5558 5561 5565 5569 5574 5578 5583 5588
5425 5409 5434 5431 5433 5431 5423 5461 5469 5473 5467 5468 5474 5475 5477 5479 5476 5472 5469 5470 5468 5468 5470 5475 5477 5479 5482 5486 5490 5493 5497 5501 5505 5508 5512 5517 5523 5528 5533 5538 5541 5545 5548 5551 5555 5560 5565 5568 5573
5432 5412 5413 5414 5402 5408 5393 5430 5458 5432 5440 5436 5438 5439 5455 5461 5463 5462 5457 5455 5457 5458 5460 5461 5461 5464 5467 5471 5475 5480 5483 5486 5487 5491 5496 5502 5508 5514 5520 5523 5526 5531 5535 5539 5543 5548 5549 5553 5555
5408 5403 5399 5381 5359 5359 5389 5384 5434 5431 5427 5418 5424 5429 5430 5442 5450 5449 5446 5442 5440 5441 5444 5447 5448 5451 5453 5457 5461 5464 5466 5469 5474 5478 5484 5489 5495 5501 5506 5509 5513 5516 5520 5524 5527 5531 5533 5538 5541
5392 5387 5376 5358 5325 5335 5380 5375 5410 5396 5391 5406 5406 5416 5424 5424 5434 5435 5432 5426 5424 5422 5427 5431 5433 5435 5438 5443 5447 5450 5453 5457 5461 5465 5469 5475 5481 5486 5491 5495 5499 5502 5507 5511 5514 5517 5519 5523 5527
5366 5364 5348 5350 5324 5360 5342 5354 5377 5365 5367 5377 5392 5407 5408 5407 5417 5418 5417 5413 5409 5408 5408 5410 5415 5418 5420 5425 5429 5432 5437 5441 5445 5449 5454 5459 5464 5470 5476 5479 5483 5487 5492 5497 5500 5502 5506 5509 5513
5335 5335 5363 5366 5334 5364 5329 5328 5376 5345 5363 5371 5375 5376 5388 5388 5393 5401 5403 5402 5398 5393 5392 5392 5396 5399 5405 5407 5412 5417 5421 5425 5429 5433 5437 5442 5447 5453 5460 5465 5470 5474 5478 5482 5487 5489 5492 5496 5500
5328 5324 5311 5317 5287 5323 5298 5317 5354 5359 5372 5368 5368 5374 5374 5381 5383 5386 5387 5388 5384 5382 5382 5384 5384 5383 5387 5393 5394 5399 5405 5409 5414 5419 5423 5428 5433 5439 5446 5450 5455 5459 5464 5468 5473 5475 5479 5484 5486
5317 5297 5333 5318 5321 5303 5300 5270 5343 5347 5350 5355 5357 5356 5357 5365 5372 5373 5373 5373 5373 5372 5370 5371 5373 5376 5376 5377 5381 5386 5390 5396 5401 5406 5411 5415 5419 5425 5430 5436 5441 5446 5450 5455 5459 5463 5467 5471 5473
5300 5306 5293 5296 5314 5309 5304 5338 5306 5313 5315 5326 5338 5347 5343 5347 5355 5358 5358 5357 5359 5362 5363 5363 5364 5364 5364 5367 5369 5372 5377 5382 5387 5392 5397 5401 5406 5411 5418 5423 5427 5432 5437 5441 5446 5450 5454 5458 5462
5269 5295 5300 5321 5315 5292 5304 5312 5287 5299 5305 5317 5321 5329 5333 5332 5331 5342 5348 5347 5347 5348 5350 5352 5353 5353 5355 5355 5355 5359 5363 5368 5373 5378 5383 5387 5391 5396 5401 5408 5413 5417 5422 5427 5432 5436 5439 5445 5449